MIDAS 4 DEB, 194

Orbit data source: Space-Track

MIDAS 4 DEB, 194 is space debris in LEO originally from a launch on Sat, 21 Oct 1961 UTC via an ATLAS AGENA B launch vehicle from the Air Force Western Test Range (AFWTR). Debris objects in space refer to the collection of defunct objects orbiting the Earth. Examples of debris include non-operational satellites, rocket bodies, and fragments generated from explosions, collisions, or faulty payload assembly.

Loading next visibility...
Identifier
194, 1961-028C
Orbit
LEO
Country
Flag of USUS
Related business
Manufacturer
MIT-LL
Mission
Spacecraft
Bus & Motor
WESTFORD, Unknown motor
Mass
30 kg wet, 30 kg dry
Launch date (UTC)
1961-10-21 (64 years ago)
Launch vehicle
ATLAS AGENA B
Launch site
Air Force Western Test Range (AFWTR)
Object type
Payload
Rocket body
Debris
Shape & HBR
Unknown
Radar Cross Section
Medium (>0.1 m² and <1 m²)

Expand to show TLE details & history
Last TLE update: 2 days ago

TLE from 2 days ago
0 MIDAS 4 DEB
1 00194U 61028C   25309.68011270  .00000060  00000-0  25532-1 0  9999
2 00194  95.8307 201.5465 0411537  41.3467 321.7793  8.70107758 33693
Epoch: 2025-11-05T16:19Z
TLE epoch observation values (Epoch: 2025-11-05T16:19:21.737Z)
Latitude
-0°
Longitude
-88.44338°
Altitude
3,293.065 km
Speed
6.521 km/s
True Right ascension
13h 26m 11s
True Declination
0° 00' 00"
Sunlit
Object was in daylight at epoch
Visualization orbit readout
Latitude
Unknown
Longitude
Unknown
Altitude
Unknown
Speed
Unknown
Apparent Right ascension
Unknown
Apparent Declination
Unknown
Sunlit
N/A
Visualization observer readout
Local Sidereal Time
01:00:30
Azimuth
Unknown
Elevation
Unknown
Doppler factor
Unknown
Orbital elements
Apogee altitude
4,015.68 km
Perigee altitude
3,194.007 km
Semi-major axis
9,982.981 km
Eccentricity
0.04115
Inclination
95.8307°
RAAN
201.5465°
Arg. of periapsis
41.3467°
True anomaly
318.7404°
Mean anomaly
321.7793°
Eccentric anomaly
320.27225°
Mean motion
2.17597 °/min
Orbital period
165.44 mins
BSTAR
0.025532
Loading maneuver chart data...
Computing Atmospheric mass density...
Loading historical data...
Loading historical data...
Loading historical data...
Loading historical data...
Loading historical data...
Loading historical data...
Loading historical data...

Documentation

Showing up to 5 results
|